Tracking 29892 objects as of 21-Nov-2024
HD Live streaming from Space Station
objects crossing your sky now

ARIANE 44L+ DEB

Track ARIANE 44L+ DEB now!


NORAD ID: 23245
Int'l Code: 1992-021P
Perigee: 950.8 km
Apogee: 35,488.8 km
Inclination: 3.5 °
Period: 639.6 minutes
Semi major axis: 24590 km
RCS: 0.4671 m2 (medium)
Launch date: April 15, 1992
Source: France (FR)
Launch site: FRENCH GUIANA (FRGUI)

Note: This is SATELLITE DEBRIS
Your satellite tracking list
Your tracking list is empty




NASA's NSSDC Master Catalog

Two Line Element Set (TLE):
1 23245U 92021P   24325.37864554 -.00000117  00000-0  00000+0 0  9997
2 23245   3.4530 250.1879 7022527   5.9594 359.2099  2.25135279238200
Source of the keplerian elements: AFSPC